{"data":{"norad_id":64535,"epoch":"2026-09-21T20:28:09.592320Z","epoch_age_seconds":64827,"freshness":"FRESH","line1":"1 64535U 25135H   26264.85288880  .00004180  00000+0  17857-3 0  9999","line2":"2 64535  97.4752  19.3825 0004138 181.0870 179.0358 15.23418234 69571","mean_motion":15.23418234,"eccentricity":0.0004138,"inclination_deg":97.4752,"raan_deg":19.3825,"arg_perigee_deg":181.087,"mean_anomaly_deg":179.0358,"bstar":0.00017857,"rev_number":6957,"period_min":94.524272314834,"perigee_km":492.69495475334,"apogee_km":498.38360924433,"semimajor_km":6873.6762819988,"source":"CELESTRAK","updated_at":"2026-09-22T09:00:29.839539Z"}}